Location: Olsztyn
(53.7767°N, 20.4765°E)
Time: 20:28:19
(UTC+02:00)

Envisat - Pass Details

Date: 03 March 2024
Orbit: 762 x 764 km, 98.3° (Epoch: 20 April)

Event Time Altitude Azimuth Distance (km) Brightness Sun altitude
Rises 01:44:09 0° 26° (NNE) 3,244 7.2 -37.6°
Reaches altitude 10° 01:47:20 10° 47° (NE) 2,312 6.2 -37.3°
Maximum altitude 01:50:33 17° 86° (E) 1,884 5.3 -37.0°
Enters shadow 01:50:35 17° 87° (E) 1,884 5.3 -37.0°
